| time (UTC) | temp C | wind direction | speed KPH | gust KPH | rain 1hr cm | rain 24hr cm | rain mn cm | humidity % | barometer mb |
| 20260507071516 | 13 | 359 | 0.0 | 6.4 | 0.00 | 0.10 | 0.00 | 86 | 1005.8 |
| 20260507070016 | 13 | 323 | 0.0 | 8.0 | 0.00 | 0.10 | 0.00 | 86 | 1005.8 |
| 20260507064509 | 13 | 278 | 0.0 | 1.6 | 0.00 | 0.10 | 0.00 | 87 | 1006.0 |
| 20260507063013 | 13 | 283 | 0.0 | 3.2 | 0.00 | 0.10 | 0.00 | 89 | 1005.8 |
| 20260507061514 | 13 | 327 | 0.0 | 8.0 | 0.00 | 0.10 | 0.00 | 91 | 1005.9 |
| 20260507060010 | 13 | 138 | 0.0 | 3.2 | 0.00 | 0.10 | 0.00 | 93 | 1006.4 |
| 20260507054513 | 13 | 127 | 0.0 | 1.6 | 0.00 | 0.10 | 0.00 | 93 | 1006.2 |
| 20260507053010 | 13 | 127 | 0.0 | 1.6 | 0.00 | 0.10 | 0.00 | 93 | 1006.2 |
| 20260507051514 | 13 | 126 | 0.0 | 0.0 | 0.00 | 0.10 | 0.00 | 93 | 1006.2 |
| 20260507050035 | 13 | 252 | 0.0 | 1.6 | 0.00 | 0.10 | 0.00 | 93 | 1006.6 |
| 20260507044522 | 13 | 230 | 0.0 | 4.8 | 0.00 | 0.10 | 0.00 | 93 | 1006.3 |
| 20260507043016 | 13 | 185 | 0.0 | 3.2 | 0.00 | 0.10 | 0.00 | 92 | 1006.0 |
| 20260507041516 | 13 | 250 | 1.6 | 12.9 | 0.00 | 0.10 | 0.00 | 92 | 1006.3 |
| 20260507040018 | 13 | 248 | 0.0 | 8.0 | 0.00 | 0.10 | 0.00 | 92 | 1006.4 |
| 20260507034519 | 13 | 213 | 0.0 | 8.0 | 0.00 | 0.10 | 0.10 | 92 | 1006.7 |
| 20260507033030 | 13 | 230 | 3.2 | 11.3 | 0.00 | 0.10 | 0.10 | 92 | 1006.3 |
| 20260507031517 | 13 | 219 | 1.6 | 12.9 | 0.00 | 0.10 | 0.10 | 92 | 1006.2 |
| 20260507030018 | 13 | 226 | 1.6 | 9.7 | 0.00 | 0.10 | 0.10 | 92 | 1006.0 |
| 20260507024519 | 13 | 193 | 3.2 | 11.3 | 0.00 | 0.10 | 0.10 | 92 | 1006.1 |
| 20260507023020 | 13 | 224 | 1.6 | 12.9 | 0.00 | 0.10 | 0.10 | 92 | 1005.9 |
| 20260507021533 | 13 | 217 | 3.2 | 14.5 | 0.00 | 0.10 | 0.10 | 92 | 1006.0 |
| 20260507020023 | 13 | 169 | 6.4 | 16.1 | 0.00 | 0.10 | 0.10 | 92 | 1006.0 |
| 20260507014520 | 13 | 281 | 3.2 | 12.9 | 0.00 | 0.10 | 0.10 | 92 | 1006.5 |
| 20260507013019 | 13 | 213 | 1.6 | 12.9 | 0.00 | 0.10 | 0.10 | 92 | 1006.5 |
| 20260507011528 | 13 | 191 | 6.4 | 17.7 | 0.00 | 0.10 | 0.10 | 92 | 1006.6 |
| 20260507010034 | 13 | 256 | 4.8 | 11.3 | 0.00 | 0.10 | 0.10 | 92 | 1006.4 |
| 20260507004521 | 13 | 143 | 6.4 | 16.1 | 0.03 | 0.10 | 0.10 | 92 | 1006.4 |
| 20260507003022 | 13 | 206 | 4.8 | 16.1 | 0.03 | 0.10 | 0.10 | 92 | 1006.4 |
| 20260507001520 | 13 | 164 | 4.8 | 17.7 | 0.05 | 0.10 | 0.10 | 92 | 1006.5 |
| 20260507000024 | 13 | 234 | 4.8 | 19.3 | 0.05 | 0.10 | 0.10 | 92 | 1006.3 |
| 20260506234520 | 13 | 108 | 4.8 | 16.1 | 0.03 | 0.08 | 0.08 | 91 | 1006.3 |
| 20260506233024 | 13 | 244 | 3.2 | 17.7 | 0.03 | 0.08 | 0.08 | 91 | 1006.3 |
| 20260506231525 | 13 | 169 | 6.4 | 27.4 | 0.03 | 0.05 | 0.05 | 91 | 1006.5 |
| 20260506230026 | 13 | 231 | 6.4 | 22.5 | 0.03 | 0.05 | 0.05 | 91 | 1006.6 |
| 20260506224521 | 13 | 201 | 4.8 | 14.5 | 0.03 | 0.05 | 0.05 | 91 | 1006.6 |
| 20260506223022 | 13 | 234 | 3.2 | 17.7 | 0.03 | 0.05 | 0.05 | 90 | 1007.0 |
| 20260506221523 | 14 | 260 | 3.2 | 24.1 | 0.00 | 0.03 | 0.03 | 89 | 1007.0 |
| 20260506220031 | 14 | 219 | 4.8 | 33.8 | 0.00 | 0.03 | 0.03 | 87 | 1007.2 |
| 20260506214525 | 15 | 257 | 8.0 | 19.3 | 0.03 | 0.03 | 0.03 | 87 | 1007.1 |
| 20260506213008 | 14 | 221 | 4.8 | 16.1 | 0.03 | 0.03 | 0.03 | 87 | 1007.1 |
| 20260506211514 | 14 | 172 | 4.8 | 17.7 | 0.03 | 0.03 | 0.03 | 88 | 1007.1 |
| 20260506210018 | 15 | 179 | 3.2 | 17.7 | 0.03 | 0.03 | 0.03 | 86 | 1007.3 |
| 20260506204528 | 15 | 208 | 3.2 | 14.5 | 0.00 | 0.00 | 0.00 | 85 | 1007.3 |
| 20260506203029 | 15 | 264 | 8.0 | 24.1 | 0.00 | 0.00 | 0.00 | 85 | 1007.3 |
| 20260506201511 | 15 | 221 | 3.2 | 20.9 | 0.00 | 0.00 | 0.00 | 84 | 1007.4 |
| 20260506200013 | 16 | 167 | 3.2 | 19.3 | 0.00 | 0.00 | 0.00 | 82 | 1007.5 |
| 20260506194518 | 16 | 218 | 8.0 | 24.1 | 0.00 | 0.00 | 0.00 | 78 | 1007.8 |
| 20260506193023 | 17 | 167 | 8.0 | 25.7 | 0.00 | 0.00 | 0.00 | 75 | 1007.9 |
| 20260506191527 | 17 | 134 | 6.4 | 25.7 | 0.00 | 0.00 | 0.00 | 74 | 1008.0 |
| 20260506190010 | 17 | 224 | 8.0 | 25.7 | 0.00 | 0.00 | 0.00 | 73 | 1007.4 |
| 20260506184516 | 17 | 198 | 4.8 | 24.1 | 0.00 | 0.00 | 0.00 | 73 | 1007.8 |
| 20260506183021 | 18 | 186 | 6.4 | 25.7 | 0.00 | 0.00 | 0.00 | 71 | 1007.9 |
| 20260506181528 | 18 | 117 | 6.4 | 22.5 | 0.00 | 0.00 | 0.00 | 70 | 1008.1 |
| 20260506180011 | 18 | 110 | 9.7 | 29.0 | 0.00 | 0.00 | 0.00 | 69 | 1008.6 |
| 20260506174511 | 19 | 237 | 11.3 | 35.4 | 0.00 | 0.00 | 0.00 | 68 | 1008.7 |
| 20260506173018 | 19 | 172 | 6.4 | 19.3 | 0.00 | 0.00 | 0.00 | 67 | 1008.7 |
| 20260506171534 | 19 | 210 | 9.7 | 25.7 | 0.00 | 0.00 | 0.00 | 67 | 1008.6 |
| 20260506170025 | 19 | 115 | 6.4 | 24.1 | 0.00 | 0.00 | 0.00 | 67 | 1008.9 |
| 20260506164510 | 19 | 202 | 9.7 | 32.2 | 0.00 | 0.00 | 0.00 | 67 | 1009.0 |
| 20260506163017 | 20 | 219 | 6.4 | 20.9 | 0.00 | 0.00 | 0.00 | 67 | 1009.2 |
| 20260506161522 | 20 | 246 | 3.2 | 32.2 | 0.00 | 0.00 | 0.00 | 65 | 1009.3 |
| 20260506160034 | 20 | 46 | 4.8 | 33.8 | 0.00 | 0.00 | 0.00 | 66 | 1009.6 |
| 20260506154530 | 20 | 134 | 3.2 | 27.4 | 0.00 | 0.00 | 0.00 | 66 | 1009.9 |
| 20260506153012 | 20 | 198 | 8.0 | 29.0 | 0.00 | 0.00 | 0.00 | 66 | 1010.2 |
| 20260506151527 | 20 | 219 | 4.8 | 20.9 | 0.00 | 0.00 | 0.00 | 65 | 1010.1 |
| 20260506150027 | 20 | 221 | 6.4 | 20.9 | 0.00 | 0.00 | 0.00 | 66 | 1010.1 |
| 20260506144521 | 20 | 243 | 9.7 | 27.4 | 0.00 | 0.00 | 0.00 | 65 | 1010.0 |
| 20260506143039 | 19 | 217 | 6.4 | 20.9 | 0.00 | 0.00 | 0.00 | 67 | 1009.9 |
| 20260506141514 | 20 | 187 | 4.8 | 19.3 | 0.00 | 0.00 | 0.00 | 69 | 1009.9 |
| 20260506140018 | 19 | 224 | 6.4 | 19.3 | 0.00 | 0.00 | 0.00 | 68 | 1010.0 |
| 20260506134520 | 18 | 21 | 6.4 | 29.0 | 0.00 | 0.00 | 0.00 | 72 | 1010.6 |
| 20260506133026 | 17 | 213 | 8.0 | 25.7 | 0.00 | 0.00 | 0.00 | 74 | 1010.6 |
| 20260506131528 | 17 | 176 | 8.0 | 19.3 | 0.00 | 0.00 | 0.00 | 76 | 1010.6 |
| 20260506130012 | 16 | 239 | 6.4 | 17.7 | 0.00 | 0.00 | 0.00 | 78 | 1010.7 |
| 20260506124519 | 16 | 236 | 8.0 | 20.9 | 0.00 | 0.00 | 0.00 | 79 | 1010.5 |
| 20260506123024 | 15 | 121 | 4.8 | 19.3 | 0.00 | 0.00 | 0.00 | 81 | 1010.3 |
| 20260506121527 | 15 | 183 | 6.4 | 17.7 | 0.00 | 0.00 | 0.00 | 81 | 1010.7 |
| 20260506120026 | 15 | 221 | 4.8 | 27.4 | 0.00 | 0.00 | 0.00 | 82 | 1010.9 |
| 20260506114520 | 15 | 170 | 3.2 | 16.1 | 0.00 | 0.00 | 0.00 | 83 | 1011.0 |
| 20260506113022 | 14 | 224 | 1.6 | 19.3 | 0.00 | 0.00 | 0.00 | 85 | 1010.9 |
| 20260506111522 | 14 | 141 | 4.8 | 17.7 | 0.00 | 0.00 | 0.00 | 85 | 1010.8 |
| 20260506110025 | 14 | 213 | 4.8 | 20.9 | 0.00 | 0.00 | 0.00 | 85 | 1010.9 |
| 20260506104528 | 14 | 128 | 4.8 | 19.3 | 0.00 | 0.00 | 0.00 | 86 | 1010.9 |
| 20260506103028 | 13 | 205 | 8.0 | 20.9 | 0.00 | 0.00 | 0.00 | 86 | 1010.9 |
| 20260506101535 | 13 | 228 | 6.4 | 19.3 | 0.00 | 0.00 | 0.00 | 86 | 1010.9 |
| 20260506100023 | 13 | 276 | 4.8 | 19.3 | 0.00 | 0.00 | 0.00 | 86 | 1010.7 |
| 20260506094526 | 13 | 180 | 3.2 | 16.1 | 0.00 | 0.00 | 0.00 | 86 | 1010.7 |
| 20260506093016 | 13 | 90 | 6.4 | 16.1 | 0.00 | 0.00 | 0.00 | 86 | 1010.7 |
| 20260506091504 | 13 | 263 | 6.4 | 19.3 | 0.00 | 0.00 | 0.00 | 85 | 1010.7 |
| 20260506090007 | 13 | 145 | 6.4 | 19.3 | 0.00 | 0.00 | 0.00 | 85 | 1010.8 |
| 20260506084516 | 13 | 242 | 4.8 | 22.5 | 0.00 | 0.00 | 0.00 | 85 | 1010.8 |
| 20260506083008 | 13 | 181 | 4.8 | 16.1 | 0.00 | 0.00 | 0.00 | 84 | 1010.9 |
| 20260506081516 | 13 | 211 | 6.4 | 17.7 | 0.00 | 0.00 | 0.00 | 84 | 1010.8 |
| 20260506073010 | 14 | 233 | 6.4 | 17.7 | 0.00 | 0.00 | 0.00 | 83 | 1010.7 |